{"data":{"norad_id":67226,"intl_designator":"2025-306A","name":"TJS-23","alt_names":[],"object_type":"PAYLOAD","status":"ACTIVE","operator":null,"country":"PRC","launch_date":"2025-12-20","launch_site_code":"WSC","launch_vehicle":null,"mission":null,"orbit_class":"UNKNOWN","rcs_meters":null,"size_class":null,"mass_kg":null,"dimensions":null,"purposes":["comms"],"wikipedia_slug":null,"has_3d_model":false,"image_url":null,"decayed_at":null,"tle_current":{"epoch":"2026-05-24T15:59:15.754848Z","epoch_age_seconds":114627,"freshness":"FRESH","line1":"1 67226U 25306A   26144.66615457  .00000005  00000+0  00000+0 0  9999","line2":"2 67226   5.6415 297.6108 0004741 156.0166 203.9581  1.00269665  1655","mean_motion":1.00269665,"eccentricity":0.0004741,"inclination_deg":5.6415,"raan_deg":297.6108,"arg_perigee_deg":156.0166,"mean_anomaly_deg":203.9581,"bstar":0,"rev_number":165,"period_min":1436.1272674044,"perigee_km":35767.198703429,"apogee_km":35807.179865812,"semimajor_km":42165.32628462,"source":"CELESTRAK","updated_at":"2026-05-25T13:38:14.188793Z"}}}